Location: Bluejay Creek
(37.7819°N, 119.6118°W)
Time: 18:52:04
(UTC+00:00)

Cosmos 2237 Rocket - Pass Details

Date: 05 August 2024
Orbit: 836 x 848 km, 71.0° (Epoch: 12 September)

Event Time Altitude Azimuth Distance (km) Brightness Sun altitude
Exits shadow 12:14:19 12° 225° (SW) 2,343 3.9 -10.0°
Maximum altitude 12:19:24 46° 297° (WNW) 1,116 2.6 -9.1°
Drops below altitude 10° 12:24:49 10° 10° (N) 2,460 5.2 -8.2°
Sets 12:27:22 0° 17° (NNE) 3,396 6.1 -7.7°
